Location: Mentone
(34.5413°N, 85.5351°W)
Time: 07:49:30
(UTC-05:00)

Vanguard 3 - All Passes

Search period start: 02 September 2015 00:00
Search period end: 12 September 2015 00:00
Orbit: 508 x 3270 km, 33.3° (Epoch: 31 August)

Date Brightness Start Highest point End Pass type
(mag) Time Alt. Az. Time Alt. Az. Time Alt. Az.
02 Sep - 00:46:23 10° SW 00:52:16 50° SSE 01:02:41 10° E visible
02 Sep - 02:56:46 10° W 03:05:12 84° S 03:20:41 10° E visible
02 Sep - 05:08:29 10° W 05:20:12 77° SSW 05:39:07 10° ESE visible
02 Sep - 07:21:41 10° W 07:36:12 49° SSW 07:54:40 10° SE daylight
02 Sep - 09:39:29 10° W 09:52:10 21° SW 10:03:52 10° S daylight
02 Sep - 23:35:08 10° SSW 23:39:34 27° SE 23:46:25 10° E visible
03 Sep - 01:44:22 10° WSW 01:51:10 75° SSE 02:03:47 10° E visible
03 Sep - 03:55:29 10° W 04:05:07 83° S 04:22:12 10° ESE visible
03 Sep - 06:07:41 10° W 06:20:31 61° SSW 06:39:30 10° SE daylight
03 Sep - 08:22:26 10° W 08:36:31 32° SW 08:52:10 10° SSE daylight
03 Sep - 22:26:09 10° SSE 22:27:16 11° SE 22:28:49 10° ESE night (unlit)
04 Sep - 00:32:21 10° SW 00:37:49 54° SSE 00:47:28 10° E visible
04 Sep - 02:42:49 10° W 02:50:38 85° S 03:05:07 10° E visible
04 Sep - 04:54:21 10° W 05:05:12 72° SSW 05:23:18 10° ESE visible
04 Sep - 07:07:24 10° W 07:20:51 43° SSW 07:38:29 10° SSE daylight
04 Sep - 09:26:13 10° WSW 09:36:52 17° SW 09:46:23 10° S daylight
04 Sep - 23:20:55 10° SSW 23:25:07 30° SE 23:31:36 10° E night (unlit)
05 Sep - 01:30:27 10° WSW 01:36:45 78° S 01:48:24 10° E visible
05 Sep - 03:41:27 10° W 03:50:23 80° S 04:06:30 10° ESE visible
05 Sep - 05:53:29 10° W 06:05:22 55° SSW 06:23:26 10° SE visible
05 Sep - 08:08:29 10° W 08:21:11 27° SW 08:35:27 10° S daylight
05 Sep - 22:10:54 10° SSE 22:12:49 13° SE 22:15:15 10° ESE night (unlit)
06 Sep - 00:18:23 10° WSW 00:23:29 59° SSE 00:32:20 10° E visible
06 Sep - 02:28:54 10° W 02:36:07 84° S 02:49:35 10° E visible
06 Sep - 04:40:15 10° W 04:50:17 66° SSW 05:07:24 10° ESE visible
06 Sep - 06:53:18 10° W 07:05:37 37° SSW 07:22:03 10° SSE daylight
06 Sep - 09:14:09 10° WSW 09:21:43 13° SW 09:27:40 10° SSW daylight
06 Sep - 23:06:46 10° SW 23:10:46 34° SSE 23:16:52 10° E night (unlit)
07 Sep - 01:16:35 10° WSW 01:22:24 80° S 01:33:05 10° E visible
07 Sep - 03:27:29 10° W 03:35:43 76° SSW 03:50:47 10° ESE visible
07 Sep - 05:39:23 10° W 05:50:19 48° SSW 06:07:13 10° SE visible
07 Sep - 07:54:55 10° W 08:06:00 22° SW 08:18:17 10° S daylight
07 Sep - 21:56:05 10° S 21:58:26 15° SE 22:01:19 10° ESE night (unlit)
08 Sep - 00:04:28 10° WSW 00:09:13 64° SSE 00:17:17 10° E visible
08 Sep - 02:15:01 10° W 02:21:41 83° S 02:34:06 10° E visible
08 Sep - 04:26:14 10° W 04:35:28 59° SSW 04:51:24 10° SE visible
08 Sep - 06:39:25 10° W 06:50:32 31° SSW 07:05:20 10° SSE daylight
08 Sep - 22:52:40 10° SW 22:56:31 38° SSE 23:02:11 10° E night (unlit)
09 Sep - 01:02:44 10° W 01:08:08 82° S 01:17:52 10° E visible
09 Sep - 03:13:33 10° W 03:21:09 70° SSW 03:35:04 10° ESE visible
09 Sep - 05:25:26 10° W 05:35:24 41° SSW 05:50:49 10° SE visible
09 Sep - 07:41:55 10° WSW 07:51:00 17° SW 08:00:28 10° S daylight
09 Sep - 21:41:29 10° SSW 21:44:07 18° SSE 21:47:18 10° ESE night (unlit)
09 Sep - 23:50:35 10° WSW 23:55:01 69° SSE 00:02:21 10° E night (unlit)
10 Sep - 02:01:08 10° W 02:07:19 79° S 02:18:41 10° ESE visible
10 Sep - 04:12:17 10° W 04:20:45 52° SSW 04:35:20 10° SE visible
10 Sep - 06:25:49 10° W 06:35:36 25° SSW 06:48:19 10° SSE daylight
10 Sep - 22:38:36 10° SW 22:42:19 43° SSE 22:47:35 10° E night (unlit)
11 Sep - 00:48:53 10° W 00:53:55 82° S 01:02:44 10° E visible
11 Sep - 02:59:39 10° W 03:06:38 63° SSW 03:19:20 10° ESE visible
11 Sep - 05:11:39 10° W 05:20:37 34° SSW 05:34:16 10° SSE visible
11 Sep - 07:30:12 10° SW 07:36:09 12° SSW 07:41:21 10° SSW daylight
11 Sep - 21:26:59 10° SSW 21:29:53 22° SSE 21:33:14 10° E night (unlit)
11 Sep - 23:36:42 10° WSW 23:40:53 73° S 23:47:32 10° E night (unlit)
